Location: Nitra
(0.0000°N, 18.0833°E)
Time: 04:22:52
(UTC+02:00)

STRAND 1 - Pass Details

Date: 11 June 2023
Orbit: 767 x 778 km, 98.4° (Epoch: 01 October)

Event Time Altitude Azimuth Distance (km) Brightness Sun altitude
Rises 19:37:30 0° 357° (N) 3,241 ? -11.5°
Reaches altitude 10° 19:39:58 10° 349° (NNW) 2,315 ? -12.1°
Maximum altitude 19:44:37 37° 282° (WNW) 1,195 ? -13.1°
Drops below altitude 10° 19:49:18 10° 216° (SW) 2,317 ? -14.2°
Sets 19:51:46 0° 208° (SSW) 3,244 ? -14.8°
